This is the latest recevied weather packets stored in our database for station/object N3WAX-1. If no packets are shown the sender has not sent any weather packets the latest 10 day(s).
| Time | Temp. | Humidity | Pressure | Rain* | Wind** | Luminosity | Snow |
|---|---|---|---|---|---|---|---|
| 1777289349 | 6.67° C | 98% | 1023.4 hPa | 0 mm | - | 130 W/m² | - |
| 1777287208 | 4.44° C | 97% | 1023 hPa | 0 mm | - | 77 W/m² | - |
| 1777286116 | 3.33° C | 97% | 1023 hPa | 0 mm | - | 26 W/m² | - |
| 1777284441 | 2.78° C | 96% | 1022.6 hPa | 0 mm | - | 0 W/m² | - |
| 1777280784 | 4.44° C | 97% | 1022.7 hPa | 0 mm | - | 0 W/m² | - |
| 1777279714 | 3.33° C | 96% | 1022.9 hPa | 0 mm | - | 0 W/m² | - |
| 1777278979 | 2.78° C | 96% | 1023 hPa | 0 mm | - | 0 W/m² | - |
| 1777277469 | 3.33° C | 96% | 1022.8 hPa | 0 mm | - | 0 W/m² | - |
| 1777270204 | 4.44° C | 95% | 1022.6 hPa | 0 mm | - | 0 W/m² | - |
| 1777269904 | 4.44° C | 96% | 1022.6 hPa | 0 mm | - | 0 W/m² | - |
| 1777268837 | 4.44° C | 95% | 1022.6 hPa | 0 mm | - | 0 W/m² | - |
| 1777268399 | 4.44° C | 95% | 1022.6 hPa | 0 mm | - | 0 W/m² | - |
| 1777266894 | 5.56° C | 95% | 1022.8 hPa | 0 mm | - | 0 W/m² | - |
| 1777265994 | 5.56° C | 95% | 1022.8 hPa | 0 mm | - | 0 W/m² | - |
| 1777264191 | 5.56° C | 95% | 1022.8 hPa | 0 mm | - | 0 W/m² | - |
| 1777261785 | 6.11° C | 94% | 1023.2 hPa | 0 mm | - | 0 W/m² | - |
| 1777259637 | 6.11° C | 94% | 1022.9 hPa | 0 mm | - | 0 W/m² | - |
| 1777258401 | 6.67° C | 93% | 1022.9 hPa | 0 mm | - | 0 W/m² | - |
| 1777257479 | 6.67° C | 92% | 1022.8 hPa | 0 mm | - | 0 W/m² | - |
| 1777254714 | 7.78° C | 90% | 1022.5 hPa | 0 mm | - | 0 W/m² | - |
| 1777254407 | 7.78° C | 90% | 1022.4 hPa | 0 mm | - | 0 W/m² | - |
| 1777249897 | 8.89° C | 86% | 1021.5 hPa | 0 mm | - | 0 W/m² | - |
| 1777249288 | 10° C | 85% | 1021.4 hPa | 0 mm | - | 0 W/m² | - |
| 1777247922 | 11.67° C | 81% | 1020.9 hPa | 0 mm | - | 0 W/m² | - |
| 1777247178 | 11.67° C | 82% | 1020.8 hPa | 0 mm | - | 0 W/m² | - |
* Rain latest hour (hover to see other rain measurements)
** Current wind speed in m/s (hover to see current wind gust speed)